Regional Weather Roundup
Issued by NWS

Home | Current Version | Previous Version | Graphics & Text | Print | Product List | Glossary On
Versions: 1 2 3 4 5 6 7 8 9 10 11 12 13 14 15 16 17 18 19 20 21 22 23 24 25 26 27 28 29 30 31 32 33 34 35 36 37 38 39 40 41 42 43 44 45 46 47 48 49 50
000
ASUS43 KLOT 270702
RWRIL

ILLINOIS REGIONAL WEATHER ROUNDUP
NATIONAL WEATHER SERVICE CHICAGO/ROMEOVILLE IL
200 AM CDT FRI MAR 27 2015

NOTE: "FAIR" INDICATES FEW OR NO CLOUDS BELOW 12,000 FEET WITH NO
SIGNIFICANT WEATHER AND/OR OBSTRUCTIONS TO VISIBILITY.

* THESE STATIONS ARE NOT UNDER NWS QUALITY CONTROL. THEY ALSO MAY NOT
  REPORT WEATHER SUCH AS PRECIPITATION OR FOG.

ILZ001-002-007-009-015-016-024-270800-
NORTHWEST ILLINOIS

CITY           SKY/WX    TMP DP  RH WIND       PRES   REMARKS
MOLINE         CLOUDY    31  21  66 NW9       30.11F WCI  23
STERLING*      CLOUDY    30  21  69 NE13G18   30.11S WCI  20
$$

ILZ003-004-008-010-011-017-018-270800-
NORTH CENTRAL ILLINOIS

CITY           SKY/WX    TMP DP  RH WIND       PRES   REMARKS
ROCKFORD       PTCLDY    29  14  53 N10       30.12S WCI  20
$$

ILZ005-006-012>014-019>023-270800-
NORTHEAST ILLINOIS

CITY           SKY/WX    TMP DP  RH WIND       PRES   REMARKS
CHICAGO-OHARE  MOCLDY    31  18  58 N9        30.06F WCI  23
CHICAGO-MIDWAY LGT SNOW  32  22  66 N13       30.07S FOG     WCI  22
AURORA         CLOUDY    31  17  56 N13       30.08S WCI  21
WAUKEGAN       SNOW      26  25  96 NE8       30.08S VSB 1/2 WCI  18
DUPAGE AIRPORT CLOUDY    30  17  58 NW8       30.06F WCI  22
WHEELING       FLURRIES  29  24  82 N10       30.09S WCI  20
NORTHERLY ISL    N/A     30  25  81 N16         N/A  WCI  19
$$

LMZ740>746-270800-
SOUTHERN LAKE MICHIGAN

STATION/POSITION SKY/WX   TEMP    WIND        PRES    VSBY  WAVE
                          AIR SEA DIR/SP/G                  HT/PER
                          (F)     (DEG/KT/KT) (MB)    (MI)  (FT/S)
HARRISON CRIB              30      20/ 20/ 23   N/A
BURNHAM HARBOR             31      10/ 15/ 16   N/A
CALUMET HARBOR             32     360/ 16/ 19 1016.9S
BURNS HARBOR               31      20/ 18/ 21 1017.9F
MICHIGAN CITY              29     360/ 22/ 24   N/A
$$

ILZ025>027-034>036-040-047-049-050-058-095>099-270800-
WEST-CENTRAL ILLINOIS

CITY           SKY/WX    TMP DP  RH WIND       PRES   REMARKS
QUINCY         CLOUDY    33  25  72 N12       30.11F WCI  24
$$

ILZ028>032-037-038-041>044-048-051>054-059>061-270800-
CENTRAL ILLINOIS

CITY           SKY/WX    TMP DP  RH WIND       PRES   REMARKS
DECATUR        PTCLDY    33  26  75 N13       30.05S WCI  24
PEORIA         PTCLDY    31  21  66 NW6       30.09F WCI  25
SPRINGFIELD    MOCLDY    34  24  67 N10       30.08S WCI  26
TAYLORVILLE    NOT AVBL
$$

ILZ033-039-045-046-055>057-062-063-270800-
EAST-CENTRAL ILLINOIS

CITY           SKY/WX    TMP DP  RH WIND       PRES   REMARKS
CHAMPAIGN      PTCLDY    32  24  72 N13       30.02S WCI  22
MATTOON        CLEAR     32  26  78 N9        30.02R WCI  24
$$

ILZ079-100>102-270800-
SOUTHWEST ILLINOIS

CITY           SKY/WX    TMP DP  RH WIND       PRES   REMARKS
BELLEVILLE     MOCLDY    40  29  67 N10       30.04R
CAHOKIA*       CLOUDY    41  29  62 N10       30.06R
SPARTA*        MOCLDY    35  31  85 CALM      30.04S
$$

ILZ064>066-069>071-074>076-080>082-084>086-088>090-092>094-270800-
SOUTH-CENTRAL ILLINOIS

CITY           SKY/WX    TMP DP  RH WIND       PRES   REMARKS
CARBONDALE     CLEAR     31  29  92 CALM      30.03F
MT. VERNON     CLEAR     30  25  80 CALM      30.03S
$$

ILZ067-068-072-073-078-083-087-091-270800-
SOUTHEAST ILLINOIS

CITY           SKY/WX    TMP DP  RH WIND       PRES   REMARKS
LAWRENCEVILLE  CLEAR     32  29  88 N5        30.02S WCI  27
ROBINSON*      CLEAR     31  31  99 N3        30.03S
$$

ABBREVIATIONS USED IN REMARKS
   TC - TEMPERATURE IN CELSIUS
  WCI - WIND CHILL INDEX
   HX - HEAT INDEX
  VSB - VISIBILITY
$$



USA.gov is the U.S. government's official web portal to all federal, state and local government web resources and services.